Location: Newark
(49.4900°N, 20.6656°E)
Time: 16:02:17
(UTC+00:00)

STARLINK-1661 - Pass Details

Date: 24 September 2020
Orbit: 548 x 551 km, 53.0° (Epoch: 29 October)

Event Time Altitude Azimuth Distance (km) Brightness Sun altitude
Exits shadow 01:45:15 49° 18° (NNE) 715 4.4 -25.7°
Drops below altitude 10° 01:48:58 10° 76° (ENE) 1,831 7.2 -25.2°
Enters shadow 02:47:22 -67° 279° (W) 12,292 10.4 -16.7°
Maximum altitude 03:24:50 76° 19° (NNE) 573 3.7 -10.9°
